Regional Weather Roundup
Issued by NWS Northern Indiana

Home | Current Version | Previous Version | Graphics & Text | Print | Product List | Glossary On
Versions: 1 2 3 4 5 6 7 8 9 10 11 12 13 14 15 16 17 18 19 20 21 22 23 24 25 26 27 28 29 30 31 32 33 34 35 36 37 38 39 40 41 42 43 44 45 46 47 48 49 50
000
ASUS43 KIWX 070210
RWRIWX

KIWX WEATHER ROUNDUP
NATIONAL WEATHER SERVICE NORTHERN INDIANA
1000 PM EDT WED MAY 06 2015

NOTE: "FAIR" INDICATES FEW OR NO CLOUDS BELOW 12,000 FEET WITH NO
SIGNIFICANT WEATHER AND/OR OBSTRUCTIONS TO VISIBILITY.

* THESE STATIONS ARE NOT UNDER NWS QUALITY CONTROL. THEY ALSO MAY NOT
  REPORT WEATHER SUCH AS PRECIPITATION OR FOG.

INZ001>027-070300-
NORTHERN INDIANA

CITY           SKY/WX    TMP DP  RH WIND       PRES   REMARKS
GARY*          MOCLDY    55 N/A N/A CALM      30.08R
VALPARAISO     PTCLDY    69  54  58 E3        30.08R
MICHIGAN CITY* PTCLDY    64  55  72 CALM      30.08S
LAPORTE*       PTCLDY    70  61  73 CALM      30.10R
KNOX*          PTCLDY    68  45  42 SE3       30.08R
SOUTH BEND     PTCLDY    74  58  57 E7        30.10R
GOSHEN         CLEAR     69  62  78 E9        30.11R HAZE
MONTICELLO*    PTCLDY    69  56  63 CALM      30.08R
LOGANSPORT*    PTCLDY    68  55  64 SE5       30.10R
ROCHESTER*     CLEAR     72  61  68 CALM      30.10S
WARSAW*        CLEAR     70  63  78 E8        30.12R
ANGOLA*        CLEAR     64  63  94 SE9       30.14R
FORT WAYNE     PTCLDY    67  60  78 E7        30.13R
HUNTINGTON*    CLEAR     70  60  71 E6        30.12R
PERU/GRISSOM   CLEAR     72  56  58 E5        30.09R
MARION*        CLEAR     71  56  60 SE5       30.12R

$$
INZ028>050-070300-
CENTRAL INDIANA

CITY           SKY/WX    TMP DP  RH WIND       PRES   REMARKS
LAFAYETTE      CLEAR     67  57  70 CALM      30.07S
KOKOMO*        CLEAR     70  57  64 SE3       30.10R
MUNCIE*        CLEAR     70  59  68 SE5       30.12R
INDIANAPOLIS   PTCLDY    75  51  43 SE5       30.09R

$$
MIZ043>046-050>051-056>058-064>065-071>073-077>080-070300-
SOUTHWEST LOWER MICHIGAN

CITY           SKY/WX    TMP DP  RH WIND       PRES   REMARKS
BATTLE CREEK   CLEAR     70  61  73 SE9       30.15R
BENTON HARBOR  PTCLDY    67  61  81 CALM      30.09R
COLDWATER*     CLEAR     64  59  85 SE6       30.15R HAZE
HILLSDALE*     CLEAR     63  62  96 SE8       30.17R FOG
HOLLAND        PTCLDY    68  60  75 E6        30.11R
GRAND RAPIDS   PTCLDY    66  59  78 E9        30.12R
KALAMAZOO      MOCLDY    70  61  73 SE6       30.13R
STURGIS*       CLEAR     66  63  88 SE8       30.13R HAZE
THREE RIVERS*  FAIR      69  61  76 E7        30.13R

$$
OHZ001>008-015>018-024>025-070300-
NORTHWEST OHIO

CITY           SKY/WX    TMP DP  RH WIND       PRES   REMARKS
WAUSEON*       FAIR      59  59 100 E7        30.17R
DEFIANCE       CLEAR     65  58  78 E8        30.16R
FINDLAY        CLEAR     65  57  75 E7        30.15R
TOLEDO EXPRESS CLEAR     58  54  86 E6        30.17R
TOLEDO METCALF CLEAR     58  53  84 E5        30.18R
LIMA           CLEAR     68  59  73 NE9       30.15R

$$
AND FOR LAKE MICHIGAN COASTAL AND OPEN LAKE BUOY OBSERVATIONS

STATION/POSITION TEMP    WIND        PRES    VSBY  WAVE
                 AIR SEA DIR/SP/G                  HT/PER
                 (F)     (DEG/KT/KT) (MB)    (MI)  (FT/S)
CALUMET HARBOR    50     360/  4/  5   N/A
MICHIGAN CITY     62      40/  3/  4   N/A
BURNS HARBOR      59      80/  8/ 10 1018.6S
SAINT JOSEPH      70      CALM  /  1 1019.0F
4 MI NW BRIDGMAN  57 52   70/  6/  6   N/A           1
MICHIGAN CITY     56 54   80/  4/  8   N/A           1

$$
&&



USA.gov is the U.S. government's official web portal to all federal, state and local government web resources and services.